#�ϑ�����,���ϕ���,���ϕ���,�ő啗��,�ő啗����������,�ő�u�ԕ���,�ő�u�ԕ�����������
#(�N����),(m/s)   ,(16����),(m/s)   ,(16����)        ,(m/s)       ,(16����)            
2018/8/24 0:01,8,15,8.1,15,13.9,16
2018/8/24 0:02,8.2,15,8.2,15,12.4,15
2018/8/24 0:03,8.2,15,8.2,15,10.8,15
2018/8/24 0:04,7.6,15,8.1,15,7.1,16
2018/8/24 0:05,7.7,15,7.7,15,13.1,15
2018/8/24 0:06,7.3,15,7.7,15,9.7,1
2018/8/24 0:07,7,15,7.3,15,7.2,14
2018/8/24 0:08,6.5,15,7,15,6,1
2018/8/24 0:09,6,15,6.5,15,10.1,15
2018/8/24 0:10,5.5,15,6,15,7.8,13
2018/8/24 0:11,5.3,15,5.5,15,11.9,15
2018/8/24 0:12,4.8,15,5.2,15,9.3,14
2018/8/24 0:13,4.4,15,4.8,15,9,16
2018/8/24 0:14,4.8,15,4.8,15,11.3,16
2018/8/24 0:15,4.6,15,4.9,15,10.6,15
2018/8/24 0:16,4.4,15,4.6,15,9.2,14
2018/8/24 0:17,4.3,15,4.4,15,5.6,1
2018/8/24 0:18,4.4,15,4.4,15,10,14
2018/8/24 0:19,4.1,14,4.5,15,7.5,15
2018/8/24 0:20,4,14,4.1,15,7.2,12
2018/8/24 0:21,4,14,4.1,15,9.8,11
2018/8/24 0:22,4,14,4.1,15,7.6,13
2018/8/24 0:23,4.3,14,4.3,15,11.4,14
2018/8/24 0:24,4.2,13,4.4,15,11,12
2018/8/24 0:25,4.2,13,4.2,15,8.5,12
2018/8/24 0:26,4.3,13,4.4,15,8.3,11
2018/8/24 0:27,4.6,13,4.6,13,8.3,13
2018/8/24 0:28,4.9,13,4.9,13,10.8,13
2018/8/24 0:29,5,13,5,13,9,12
2018/8/24 0:30,5.3,13,5.4,13,9.5,13
2018/8/24 0:31,5.4,13,5.4,13,9.7,12
2018/8/24 0:32,5.6,13,5.6,13,12.1,13
2018/8/24 0:33,5.7,13,5.8,13,11.7,12
2018/8/24 0:34,5.7,13,5.7,13,10,13
2018/8/24 0:35,5.5,13,5.7,13,9.5,12
2018/8/24 0:36,5.3,13,5.5,13,5.2,12
2018/8/24 0:37,5.1,12,5.3,13,5.8,12
2018/8/24 0:38,4.7,12,5,13,3.7,11
2018/8/24 0:39,4.6,12,4.8,13,4.7,13
2018/8/24 0:40,4.4,12,4.6,13,6.1,14
2018/8/24 0:41,4.1,12,4.4,13,5.1,12
2018/8/24 0:42,3.8,12,4.1,13,6.1,10
2018/8/24 0:43,3.2,12,3.8,13,4.9,9
2018/8/24 0:44,3,12,3.2,13,5.7,12
2018/8/24 0:45,3,11,3,13,6.2,9
2018/8/24 0:46,3.1,11,3.1,13,5.5,10
2018/8/24 0:47,3.1,11,3.1,12,7.2,10
2018/8/24 0:48,3.2,11,3.2,12,5.2,9
2018/8/24 0:49,3.3,11,3.3,12,7,10
2018/8/24 0:50,3.2,11,3.3,12,5.2,11
2018/8/24 0:51,3.4,11,3.4,12,7.4,10
2018/8/24 0:52,3.6,10,3.6,12,6.7,10
2018/8/24 0:53,3.8,10,3.8,10,6.9,10
2018/8/24 0:54,3.8,10,3.8,10,5.4,9
2018/8/24 0:55,3.7,10,3.8,10,5.6,10
2018/8/24 0:56,3.6,10,3.7,10,6.4,10
2018/8/24 0:57,3.7,10,3.7,10,8.2,10
2018/8/24 0:58,3.9,10,3.9,10,8.5,10
2018/8/24 0:59,3.7,10,3.9,10,6,10
2018/8/24 1:00,3.8,10,3.8,10,5.7,9
2018/8/24 1:01,3.8,10,3.8,10,7.8,11
2018/8/24 1:02,3.8,10,3.9,10,9.7,10
2018/8/24 1:03,3.9,10,3.9,10,8.4,11
2018/8/24 1:04,4,10,4,10,8.7,9
2018/8/24 1:05,4.2,10,4.2,10,10.1,11
2018/8/24 1:06,4.3,10,4.3,10,9.2,11
2018/8/24 1:07,4.4,10,4.5,10,11.9,10
2018/8/24 1:08,4.5,10,4.5,10,9.3,10
2018/8/24 1:09,4.6,11,4.6,10,6.2,11
2018/8/24 1:10,4.7,11,4.8,11,8.2,10
2018/8/24 1:11,4.8,10,4.8,11,7.2,10
2018/8/24 1:12,4.7,11,4.8,11,9.1,10
2018/8/24 1:13,4.8,10,4.8,11,9.9,10
2018/8/24 1:14,4.9,10,4.9,10,8.9,10
2018/8/24 1:15,4.8,10,5,10,7.4,10
2018/8/24 1:16,4.7,10,4.8,10,7.1,10
2018/8/24 1:17,4.7,10,4.7,10,7.9,10
2018/8/24 1:18,4.3,10,4.6,10,6.4,9
2018/8/24 1:19,4.4,10,4.4,10,5.8,10
2018/8/24 1:20,4.4,10,4.4,10,7.6,10
2018/8/24 1:21,4.3,10,4.4,10,7.2,10
2018/8/24 1:22,4.2,10,4.4,10,8.3,11
2018/8/24 1:23,4,10,4.2,10,5.5,11
2018/8/24 1:24,3.8,10,4,10,5.7,10
2018/8/24 1:25,3.8,10,3.8,10,6.7,10
2018/8/24 1:26,3.8,10,3.8,10,8.3,10
2018/8/24 1:27,3.9,10,3.9,10,10.2,11
2018/8/24 1:28,4.2,10,4.2,10,9.2,10
2018/8/24 1:29,4.3,10,4.3,10,9,9
2018/8/24 1:30,4.3,10,4.3,10,7.6,9
2018/8/24 1:31,4.3,10,4.4,10,7.8,10
2018/8/24 1:32,4.3,10,4.3,10,6.1,9
2018/8/24 1:33,4.4,10,4.4,10,6.5,10
2018/8/24 1:34,4.7,10,4.7,10,10.3,10
2018/8/24 1:35,4.9,10,4.9,10,10.9,10
2018/8/24 1:36,4.8,10,4.9,10,7.4,8
2018/8/24 1:37,4.5,10,4.7,10,6,10
2018/8/24 1:38,4.2,10,4.5,10,4.4,8
2018/8/24 1:39,4.2,10,4.2,10,10,10
2018/8/24 1:40,4.1,10,4.2,10,6,9
2018/8/24 1:41,4.1,10,4.1,10,7.9,8
2018/8/24 1:42,4.4,10,4.4,10,9.9,8
2018/8/24 1:43,4.5,10,4.5,10,9.2,10
2018/8/24 1:44,4.6,10,4.6,10,12.2,10
2018/8/24 1:45,4.4,10,4.6,10,7.6,10
2018/8/24 1:46,4.6,10,4.6,10,8.4,10
2018/8/24 1:47,4.6,10,4.7,10,7.2,10
2018/8/24 1:48,4.8,10,4.8,10,7.2,11
2018/8/24 1:49,4.8,10,4.9,10,7.7,9
2018/8/24 1:50,5,10,5,10,7.5,9
2018/8/24 1:51,4.9,10,5,10,7.4,11
2018/8/24 1:52,4.8,10,4.9,10,7.1,10
2018/8/24 1:53,4.5,10,4.8,10,5.6,9
2018/8/24 1:54,4,10,4.5,10,5.2,10
2018/8/24 1:55,3.8,10,4,10,3.9,9
2018/8/24 1:56,3.4,11,3.7,10,2.6,12
2018/8/24 1:57,3.3,11,3.4,10,3.7,12
2018/8/24 1:58,3.2,11,3.3,10,5.6,12
2018/8/24 1:59,3,11,3.2,10,5.6,11
2018/8/24 2:00,2.7,11,3,10,6.1,10
2018/8/24 2:01,2.6,11,2.7,10,3.7,10
2018/8/24 2:02,2.3,11,2.6,10,3.8,10
2018/8/24 2:03,2.2,11,2.3,10,2.5,13
2018/8/24 2:04,2.1,12,2.2,10,1.5,13
2018/8/24 2:05,2,12,2,11,3,12
2018/8/24 2:06,2,12,2.1,11,2.4,11
2018/8/24 2:07,1.9,12,2,11,2.2,14
2018/8/24 2:08,1.7,12,1.8,11,4.3,11
2018/8/24 2:09,1.5,12,1.7,11,2.1,15
2018/8/24 2:10,1.6,12,1.6,11,4.9,11
2018/8/24 2:11,1.5,12,1.6,11,2.9,10
2018/8/24 2:12,1.4,12,1.5,11,1.4,1
2018/8/24 2:13,1.5,12,1.5,11,4.2,10
2018/8/24 2:14,1.6,12,1.6,12,4.1,13
2018/8/24 2:15,1.7,12,1.7,12,3.6,10
2018/8/24 2:16,1.8,12,1.8,12,4.8,10
2018/8/24 2:17,1.8,11,1.8,12,3.2,9
2018/8/24 2:18,1.9,11,1.9,11,4.4,8
2018/8/24 2:19,2.1,11,2.1,11,6.7,11
2018/8/24 2:20,2.3,11,2.3,11,5,10
2018/8/24 2:21,2.5,11,2.5,11,5.4,11
2018/8/24 2:22,2.7,11,2.7,11,5.8,10
2018/8/24 2:23,2.6,10,2.8,11,4.2,9
2018/8/24 2:24,2.6,10,2.6,11,3.6,11
2018/8/24 2:25,2.5,10,2.6,11,2.7,9
2018/8/24 2:26,2.4,10,2.5,11,2.4,8
2018/8/24 2:27,2.4,10,2.4,11,3,9
2018/8/24 2:28,2.3,10,2.4,11,2,9
2018/8/24 2:29,2.1,10,2.3,11,3,10
2018/8/24 2:30,1.7,10,2,11,2.1,10
2018/8/24 2:31,1.5,10,1.7,11,2.5,10
2018/8/24 2:32,1.3,10,1.5,11,2.2,10
2018/8/24 2:33,1.3,10,1.3,10,2.1,10
2018/8/24 2:34,1.2,10,1.3,10,2.6,10
2018/8/24 2:35,1.2,10,1.2,10,3.2,10
2018/8/24 2:36,1.3,10,1.3,10,3.5,11
2018/8/24 2:37,1.3,10,1.3,10,2.7,11
2018/8/24 2:38,1.4,11,1.4,10,2,10
2018/8/24 2:39,1.3,11,1.4,10,1.9,12
2018/8/24 2:40,1.3,11,1.3,10,2.1,14
2018/8/24 2:41,1.3,11,1.3,10,1.9,13
2018/8/24 2:42,1.3,12,1.3,11,2.6,12
2018/8/24 2:43,1.3,12,1.3,11,1.8,13
2018/8/24 2:44,1.2,12,1.3,11,0.9,15
2018/8/24 2:45,1.1,12,1.2,11,1,9
2018/8/24 2:46,0.9,12,1.1,11,1,9
2018/8/24 2:47,0.8,12,0.9,11,1.6,11
2018/8/24 2:48,0.7,12,0.8,11,0.6,13
2018/8/24 2:49,0.7,12,0.8,11,1.5,7
2018/8/24 2:50,0.8,11,0.8,11,2.1,9
2018/8/24 2:51,0.8,11,0.8,12,1.9,11
2018/8/24 2:52,0.7,11,0.8,12,1.8,9
2018/8/24 2:53,0.8,10,0.8,12,2,7
2018/8/24 2:54,0.9,10,0.9,12,3,8
2018/8/24 2:55,1.1,9,1.1,12,2.7,8
2018/8/24 2:56,1.2,9,1.2,9,2.5,8
2018/8/24 2:57,1.2,9,1.2,9,2.1,8
2018/8/24 2:58,1.4,9,1.4,9,2.1,8
2018/8/24 2:59,1.5,9,1.5,9,1.9,8
2018/8/24 3:00,1.4,8,1.5,9,1.6,8
2018/8/24 3:01,1.5,8,1.5,9,2,7
2018/8/24 3:02,1.5,8,1.5,9,1.5,7
2018/8/24 3:03,1.4,8,1.4,9,1.1,9
2018/8/24 3:04,1.2,8,1.4,9,0.9,9
2018/8/24 3:05,1,8,1.2,9,0.6,9
2018/8/24 3:06,0.9,8,1,9,0.4,9
2018/8/24 3:07,0.8,7,0.9,9,0.5,7
2018/8/24 3:08,0.6,7,0.8,9,0.5,1
2018/8/24 3:09,0.5,7,0.6,8,0.3,4
2018/8/24 3:10,0.4,7,0.5,8,0.3,12
2018/8/24 3:11,0.2,8,0.4,8,0.4,9
2018/8/24 3:12,0.2,8,0.2,8,1,7
2018/8/24 3:13,0.3,7,0.3,8,1,6
2018/8/24 3:14,0.3,8,0.3,8,1.1,9
2018/8/24 3:15,0.3,7,0.3,8,0.1,6
2018/8/24 3:16,0.3,7,0.3,7,0.5,1
2018/8/24 3:17,0.3,7,0.3,7,0.8,1
2018/8/24 3:18,0.4,7,0.4,7,1.4,16
2018/8/24 3:19,0.4,6,0.4,7,1.1,16
2018/8/24 3:20,0.4,6,0.4,7,0.8,15
2018/8/24 3:21,0.5,4,0.5,5,0.8,5
2018/8/24 3:22,0.5,3,0.5,5,1.3,2
2018/8/24 3:23,0.5,2,0.5,5,1.5,1
2018/8/24 3:24,0.5,1,0.5,5,1.6,16
2018/8/24 3:25,0.7,1,0.7,1,1.9,15
2018/8/24 3:26,0.8,1,0.8,1,1.8,1
2018/8/24 3:27,0.8,16,0.8,1,1.1,1
2018/8/24 3:28,0.8,1,0.8,1,1.9,1
2018/8/24 3:29,0.9,16,0.9,16,2.1,16
2018/8/24 3:30,1,16,1,16,1.4,15
2018/8/24 3:31,1,16,1,16,1.4,16
2018/8/24 3:32,1,16,1.1,16,1.1,16
2018/8/24 3:33,1.1,16,1.1,16,1.5,16
2018/8/24 3:34,1.1,16,1.1,16,1.5,16
2018/8/24 3:35,1,16,1.1,16,1.1,16
2018/8/24 3:36,0.9,16,1,16,0.8,1
2018/8/24 3:37,0.9,16,0.9,16,0.5,8
2018/8/24 3:38,0.8,16,0.9,16,2.2,9
2018/8/24 3:39,0.8,16,0.8,16,1.9,7
2018/8/24 3:40,0.8,1,0.8,16,1.9,7
2018/8/24 3:41,0.8,6,0.8,16,1.8,9
2018/8/24 3:42,0.8,8,0.8,16,2,8
2018/8/24 3:43,0.9,8,0.9,16,2,9
2018/8/24 3:44,0.9,8,0.9,16,1.8,9
2018/8/24 3:45,0.9,8,0.9,16,2,8
2018/8/24 3:46,1.1,9,1.1,9,1.9,9
2018/8/24 3:47,1.1,9,1.1,9,1.9,9
2018/8/24 3:48,1.1,9,1.2,9,1.5,9
2018/8/24 3:49,1.1,9,1.1,9,1.6,9
2018/8/24 3:50,1.1,9,1.1,9,1.8,10
2018/8/24 3:51,1.1,9,1.2,9,2.5,9
2018/8/24 3:52,1.2,9,1.2,9,2.1,11
2018/8/24 3:53,1.1,9,1.2,9,2.1,11
2018/8/24 3:54,1.1,9,1.1,9,1.4,9
2018/8/24 3:55,1,9,1.1,9,1.3,7
2018/8/24 3:56,0.9,9,1,9,1.3,8
2018/8/24 3:57,0.9,9,0.9,9,1,9
2018/8/24 3:58,0.9,9,0.9,9,0.5,8
2018/8/24 3:59,0.8,9,0.8,9,0.9,8
2018/8/24 4:00,0.7,9,0.8,9,0.3,11
2018/8/24 4:01,0.6,10,0.7,9,0.5,13
2018/8/24 4:02,0.5,10,0.6,9,1,16
2018/8/24 4:03,0.4,10,0.5,9,1.5,1
2018/8/24 4:04,0.4,12,0.4,9,1.4,16
2018/8/24 4:05,0.5,13,0.5,10,1.5,15
2018/8/24 4:06,0.5,14,0.5,9,1.3,15
2018/8/24 4:07,0.6,14,0.6,9,1.4,16
2018/8/24 4:08,0.6,15,0.6,9,1,16
2018/8/24 4:09,0.6,15,0.6,9,0.9,2
2018/8/24 4:10,0.7,16,0.7,9,0.9,2
2018/8/24 4:11,0.7,16,0.7,16,0.8,2
2018/8/24 4:12,0.7,1,0.7,16,0.4,2
2018/8/24 4:13,0.6,1,0.7,16,0.1,14
2018/8/24 4:14,0.6,2,0.6,16,0.5,3
2018/8/24 4:15,0.5,2,0.6,16,0.5,3
2018/8/24 4:16,0.5,2,0.5,16,0.4,3
2018/8/24 4:17,0.4,2,0.4,16,0.5,1
2018/8/24 4:18,0.3,2,0.4,16,0.8,2
2018/8/24 4:19,0.3,2,0.3,16,1.4,3
2018/8/24 4:20,0.4,3,0.4,16,1.4,4
2018/8/24 4:21,0.4,3,0.4,16,1.1,4
2018/8/24 4:22,0.5,3,0.5,1,1.4,3
2018/8/24 4:23,0.6,3,0.6,1,1.3,2
2018/8/24 4:24,0.6,3,0.6,2,0.6,15
2018/8/24 4:25,0.6,3,0.6,3,0.8,2
2018/8/24 4:26,0.6,3,0.6,3,0.6,2
2018/8/24 4:27,0.7,3,0.7,3,1.1,16
2018/8/24 4:28,0.7,3,0.7,3,0.9,1
2018/8/24 4:29,0.7,2,0.7,3,1.3,2
2018/8/24 4:30,0.7,2,0.7,3,1.6,3
2018/8/24 4:31,0.8,2,0.8,2,1.6,3
2018/8/24 4:32,0.8,2,0.8,2,1.8,4
2018/8/24 4:33,0.8,2,0.8,2,1.1,3
2018/8/24 4:34,0.8,2,0.8,2,0.8,3
2018/8/24 4:35,0.8,2,0.8,2,1.3,4
2018/8/24 4:36,0.9,2,0.9,2,1.8,3
2018/8/24 4:37,1,2,1,2,2.1,3
2018/8/24 4:38,1,2,1,2,1.8,4
2018/8/24 4:39,1,2,1,2,1,1
2018/8/24 4:40,1,2,1,2,1.4,2
2018/8/24 4:41,1,2,1,2,1.6,2
2018/8/24 4:42,1,2,1,2,2.1,2
2018/8/24 4:43,1,2,1,2,1.3,1
2018/8/24 4:44,1,2,1,2,1,1
2018/8/24 4:45,0.9,2,0.9,2,1,3
2018/8/24 4:46,0.9,2,0.9,2,1.1,2
2018/8/24 4:47,0.8,2,0.9,2,0.8,16
2018/8/24 4:48,0.7,2,0.8,2,0.9,1
2018/8/24 4:49,0.7,2,0.7,2,0.9,1
2018/8/24 4:50,0.7,2,0.7,2,1,16
2018/8/24 4:51,0.7,1,0.7,2,1.3,1
2018/8/24 4:52,0.6,1,0.7,2,1,1
2018/8/24 4:53,0.6,1,0.6,2,1.1,1
2018/8/24 4:54,0.7,1,0.7,2,1.8,1
2018/8/24 4:55,0.8,1,0.8,2,2.2,1
2018/8/24 4:56,0.8,1,0.8,2,1.5,1
2018/8/24 4:57,0.8,1,0.8,2,0.9,1
2018/8/24 4:58,0.8,1,0.8,1,0.5,3
2018/8/24 4:59,0.8,1,0.8,1,0.9,1
2018/8/24 5:00,0.7,1,0.8,1,0.8,2
2018/8/24 5:01,0.8,1,0.8,1,1.4,2
2018/8/24 5:02,0.8,1,0.8,1,1,16
2018/8/24 5:03,0.8,1,0.8,1,1.1,15
2018/8/24 5:04,0.7,1,0.8,1,1,16
2018/8/24 5:05,0.7,1,0.7,1,1.1,1
2018/8/24 5:06,0.6,1,0.7,1,1.3,1
2018/8/24 5:07,0.7,1,0.7,1,1.3,16
2018/8/24 5:08,0.7,1,0.7,1,1.5,16
2018/8/24 5:09,0.8,1,0.8,1,1.8,16
2018/8/24 5:10,0.9,16,0.9,1,2.1,15
2018/8/24 5:11,0.9,16,1,16,2.2,16
2018/8/24 5:12,1,16,1,16,1.8,1
2018/8/24 5:13,1.1,16,1.1,16,2,16
2018/8/24 5:14,1.2,16,1.2,16,2.1,16
2018/8/24 5:15,1.3,16,1.3,16,2.5,16
2018/8/24 5:16,1.4,16,1.4,16,2.2,16
2018/8/24 5:17,1.5,16,1.5,16,2.2,1
2018/8/24 5:18,1.5,16,1.5,16,2.4,16
2018/8/24 5:19,1.5,16,1.5,16,2.4,15
2018/8/24 5:20,1.6,16,1.6,16,2.5,15
2018/8/24 5:21,1.6,16,1.6,16,2.5,16
2018/8/24 5:22,1.7,16,1.7,16,2.5,16
2018/8/24 5:23,1.7,16,1.7,16,2.2,16
2018/8/24 5:24,1.7,16,1.7,16,2.6,1
2018/8/24 5:25,1.7,16,1.7,16,2.6,1
2018/8/24 5:26,1.6,16,1.7,16,2.2,3
2018/8/24 5:27,1.6,1,1.6,16,1.4,2
2018/8/24 5:28,1.5,1,1.6,16,1.3,4
2018/8/24 5:29,1.4,1,1.5,16,0.8,4
2018/8/24 5:30,1.2,1,1.3,16,1,13
2018/8/24 5:31,1.1,1,1.2,16,1.3,11
2018/8/24 5:32,1.1,1,1.1,16,2,12
2018/8/24 5:33,1.1,16,1.1,16,2,13
2018/8/24 5:34,1.1,15,1.1,16,1.6,13
2018/8/24 5:35,1,15,1,16,1.5,16
2018/8/24 5:36,0.9,15,1,16,1.5,16
2018/8/24 5:37,1,15,1,1,1.3,16
2018/8/24 5:38,1,15,1,1,1,1
2018/8/24 5:39,1,15,1,1,0.6,2
2018/8/24 5:40,0.9,15,1,1,0.5,1
2018/8/24 5:41,0.9,16,0.9,1,0.4,2
2018/8/24 5:42,0.7,16,0.9,16,0.1,16
2018/8/24 5:43,0.6,1,0.7,16,0.5,4
2018/8/24 5:44,0.5,1,0.6,15,0.5,4
2018/8/24 5:45,0.4,2,0.5,15,0.4,3
2018/8/24 5:46,0.3,2,0.4,15,0.4,3
2018/8/24 5:47,0.3,2,0.3,15,0.9,16
2018/8/24 5:48,0.3,2,0.3,15,1.1,16
2018/8/24 5:49,0.3,1,0.3,15,1.4,16
2018/8/24 5:50,0.3,1,0.3,16,1.3,16
2018/8/24 5:51,0.4,1,0.4,16,1.3,16
2018/8/24 5:52,0.5,2,0.5,16,1.3,3
2018/8/24 5:53,0.6,2,0.6,1,1.5,16
2018/8/24 5:54,0.6,1,0.6,2,1.8,2
2018/8/24 5:55,0.7,1,0.7,1,0.6,1
2018/8/24 5:56,0.7,1,0.7,1,1.3,16
2018/8/24 5:57,0.7,1,0.7,1,1.1,2
2018/8/24 5:58,0.8,1,0.8,1,1.8,16
2018/8/24 5:59,0.7,1,0.8,1,0.9,1
2018/8/24 6:00,0.8,1,0.8,1,1,2
2018/8/24 6:01,0.8,1,0.8,1,1.9,15
2018/8/24 6:02,0.8,1,0.9,1,1.9,16
2018/8/24 6:03,0.8,1,0.8,1,1.8,15
2018/8/24 6:04,0.8,1,0.8,1,1.6,15
2018/8/24 6:05,1,1,1,1,2,1
2018/8/24 6:06,1,1,1,1,1.9,16
2018/8/24 6:07,1,1,1,1,1.5,16
2018/8/24 6:08,1,1,1,1,1.8,16
2018/8/24 6:09,1.1,1,1.1,1,2.1,16
2018/8/24 6:10,1.2,16,1.2,16,2,16
2018/8/24 6:11,1.1,16,1.2,16,1.6,1
2018/8/24 6:12,1.2,16,1.2,16,1.5,2
2018/8/24 6:13,1.2,1,1.2,16,2.1,2
2018/8/24 6:14,1.2,1,1.2,16,2,3
2018/8/24 6:15,1.2,1,1.2,16,1.9,1
2018/8/24 6:16,1.2,1,1.2,16,2.2,3
2018/8/24 6:17,1.2,1,1.2,16,2,3
2018/8/24 6:18,1.2,1,1.2,16,1.8,2
2018/8/24 6:19,1.2,2,1.2,16,1.4,2
2018/8/24 6:20,1.1,2,1.2,16,1.6,1
2018/8/24 6:21,1.2,2,1.2,16,2.4,1
2018/8/24 6:22,1.3,2,1.3,2,2.5,3
2018/8/24 6:23,1.3,2,1.3,2,2.5,3
2018/8/24 6:24,1.3,2,1.3,2,1.8,1
2018/8/24 6:25,1.3,2,1.3,2,2.2,1
2018/8/24 6:26,1.3,2,1.3,2,2,2
2018/8/24 6:27,1.3,2,1.3,2,2.4,1
2018/8/24 6:28,1.3,2,1.3,2,2.1,2
2018/8/24 6:29,1.4,2,1.4,2,2.5,4
2018/8/24 6:30,1.4,2,1.4,2,1.6,3
2018/8/24 6:31,1.3,2,1.4,2,2,2
2018/8/24 6:32,1.2,2,1.3,2,1.6,2
2018/8/24 6:33,1.2,2,1.2,2,2.7,3
2018/8/24 6:34,1.2,2,1.2,2,2.2,4
2018/8/24 6:35,1.2,2,1.2,2,2.1,3
2018/8/24 6:36,1.3,2,1.3,2,3.2,3
2018/8/24 6:37,1.3,3,1.3,2,2.4,4
2018/8/24 6:38,1.3,2,1.3,2,2.5,1
2018/8/24 6:39,1.3,2,1.3,2,2,1
2018/8/24 6:40,1.3,2,1.3,2,2,3
2018/8/24 6:41,1.2,2,1.3,2,1.3,2
2018/8/24 6:42,1.3,2,1.3,2,1.5,1
2018/8/24 6:43,1.2,2,1.3,2,1.6,1
2018/8/24 6:44,1.2,2,1.2,2,2.1,1
2018/8/24 6:45,1.2,2,1.2,2,2.2,2
2018/8/24 6:46,1.2,2,1.2,2,2.2,2
2018/8/24 6:47,1.2,1,1.2,2,3,3
2018/8/24 6:48,1.2,1,1.2,2,2.7,2
2018/8/24 6:49,1.3,2,1.3,2,2.9,2
2018/8/24 6:50,1.4,1,1.4,1,2.6,1
2018/8/24 6:51,1.5,2,1.5,2,3.8,3
2018/8/24 6:52,1.7,2,1.7,2,3.1,3
2018/8/24 6:53,1.8,2,1.8,2,3.5,3
2018/8/24 6:54,1.8,2,1.8,2,2.6,2
2018/8/24 6:55,1.8,2,1.8,2,2.9,2
2018/8/24 6:56,1.8,2,1.8,2,2.2,2
2018/8/24 6:57,1.7,2,1.7,2,1.4,2
2018/8/24 6:58,1.6,2,1.7,2,1.9,4
2018/8/24 6:59,1.6,2,1.6,2,2.2,3
2018/8/24 7:00,1.5,2,1.5,2,2.5,3
2018/8/24 7:01,1.4,2,1.5,2,1.5,16
2018/8/24 7:02,1.2,2,1.3,2,1.9,3
2018/8/24 7:03,1.2,2,1.2,2,1.9,2
2018/8/24 7:04,1.1,2,1.2,2,1.1,1
2018/8/24 7:05,1,2,1,2,1.8,2
2018/8/24 7:06,1,2,1,2,2.2,2
2018/8/24 7:07,1.1,2,1.1,2,2,2
2018/8/24 7:08,1.1,2,1.1,2,3,2
2018/8/24 7:09,1.2,2,1.2,2,2.9,2
2018/8/24 7:10,1.1,2,1.2,2,2.2,2
2018/8/24 7:11,1.2,2,1.2,2,2.6,3
2018/8/24 7:12,1.3,2,1.3,2,3,3
2018/8/24 7:13,1.5,2,1.5,2,3.7,3
2018/8/24 7:14,1.7,2,1.7,2,3.6,3
2018/8/24 7:15,1.8,2,1.8,2,3,1
2018/8/24 7:16,1.8,2,1.8,2,3,2
2018/8/24 7:17,1.9,2,1.9,2,3.1,2
2018/8/24 7:18,1.9,2,1.9,2,3.2,2
2018/8/24 7:19,1.9,2,2,2,3.2,3
2018/8/24 7:20,1.9,2,1.9,2,3,2
2018/8/24 7:21,2,2,2,2,2.9,2
2018/8/24 7:22,1.9,2,2,2,3.3,2
2018/8/24 7:23,1.9,2,1.9,2,2.9,3
2018/8/24 7:24,1.8,2,1.9,2,3.1,2
2018/8/24 7:25,1.8,2,1.8,2,2.6,1
2018/8/24 7:26,1.8,2,1.8,2,3.9,2
2018/8/24 7:27,1.7,2,1.8,2,3.9,3
2018/8/24 7:28,1.7,2,1.7,2,2.7,3
2018/8/24 7:29,1.7,2,1.7,2,2.9,2
2018/8/24 7:30,1.7,2,1.7,2,2.1,3
2018/8/24 7:31,1.7,2,1.8,2,2,3
2018/8/24 7:32,1.6,2,1.7,2,2,3
2018/8/24 7:33,1.6,2,1.6,2,2.2,3
2018/8/24 7:34,1.6,2,1.6,2,2.6,4
2018/8/24 7:35,1.6,2,1.6,2,1.8,16
2018/8/24 7:36,1.5,2,1.6,2,2.4,3
2018/8/24 7:37,1.4,2,1.5,2,3.1,2
2018/8/24 7:38,1.4,2,1.4,2,2.7,3
2018/8/24 7:39,1.5,2,1.5,2,2.9,3
2018/8/24 7:40,1.4,2,1.5,2,2.7,3
2018/8/24 7:41,1.5,2,1.5,2,3.3,3
2018/8/24 7:42,1.5,2,1.5,2,2.2,2
2018/8/24 7:43,1.5,2,1.5,2,1.9,1
2018/8/24 7:44,1.4,2,1.5,2,2.1,1
2018/8/24 7:45,1.4,2,1.4,2,2.9,3
2018/8/24 7:46,1.5,2,1.5,2,3.3,2
2018/8/24 7:47,1.6,2,1.6,2,3,3
2018/8/24 7:48,1.5,2,1.6,2,1.3,16
2018/8/24 7:49,1.5,2,1.5,2,2.1,1
2018/8/24 7:50,1.5,2,1.5,2,2,1
2018/8/24 7:51,1.4,2,1.5,2,2,3
2018/8/24 7:52,1.3,2,1.4,2,1.3,3
2018/8/24 7:53,1.3,2,1.3,2,1.6,2
2018/8/24 7:54,1.3,2,1.3,2,1.6,2
2018/8/24 7:55,1.2,2,1.2,2,2,1
2018/8/24 7:56,1.1,2,1.2,2,2.5,1
2018/8/24 7:57,1.1,2,1.1,2,3.1,1
2018/8/24 7:58,1.2,2,1.2,2,2.2,1
2018/8/24 7:59,1.2,2,1.2,2,2.2,16
2018/8/24 8:00,1.2,2,1.2,2,2.2,2
2018/8/24 8:01,1.2,2,1.2,2,2.4,1
2018/8/24 8:02,1.4,2,1.4,2,3.3,2
2018/8/24 8:03,1.5,2,1.5,2,3.7,2
2018/8/24 8:04,1.6,2,1.6,2,2.5,2
2018/8/24 8:05,1.7,1,1.7,1,2.5,2
2018/8/24 8:06,1.7,1,1.7,1,2.5,2
2018/8/24 8:07,1.7,2,1.7,1,2.5,3
2018/8/24 8:08,1.7,2,1.7,1,2.9,3
2018/8/24 8:09,1.6,2,1.7,1,1.3,2
2018/8/24 8:10,1.6,2,1.6,1,1.8,2
2018/8/24 8:11,1.7,2,1.7,1,3,2
2018/8/24 8:12,1.6,2,1.7,1,1.8,3
2018/8/24 8:13,1.5,2,1.6,1,2.1,1
2018/8/24 8:14,1.4,2,1.5,1,2,3
2018/8/24 8:15,1.3,2,1.4,1,2,3
2018/8/24 8:16,1.3,2,1.3,1,3,2
2018/8/24 8:17,1.3,2,1.3,2,3,2
2018/8/24 8:18,1.3,2,1.3,2,2.6,4
2018/8/24 8:19,1.4,2,1.4,2,2.5,4
2018/8/24 8:20,1.4,2,1.4,2,2.9,3
2018/8/24 8:21,1.3,2,1.4,2,2.9,3
2018/8/24 8:22,1.5,2,1.5,2,3.6,4
2018/8/24 8:23,1.7,3,1.7,3,4.1,5
2018/8/24 8:24,1.8,3,1.8,3,3.2,4
2018/8/24 8:25,1.9,3,1.9,3,2.5,3
2018/8/24 8:26,1.8,3,1.9,3,3,3
2018/8/24 8:27,1.8,3,1.8,3,2.9,5
2018/8/24 8:28,1.8,4,1.9,3,2,6
2018/8/24 8:29,1.8,4,1.8,3,1.9,5
2018/8/24 8:30,1.8,4,1.8,3,3,4
2018/8/24 8:31,1.9,4,1.9,3,3.5,3
2018/8/24 8:32,1.8,4,1.9,3,4.2,3
2018/8/24 8:33,1.8,4,1.8,3,4.2,3
2018/8/24 8:34,1.9,4,1.9,3,3.8,3
2018/8/24 8:35,1.9,4,1.9,3,3.1,3
2018/8/24 8:36,2,4,2,4,4.1,3
2018/8/24 8:37,2.1,4,2.1,4,4.2,4
2018/8/24 8:38,2.3,4,2.3,4,3.5,4
2018/8/24 8:39,2.4,3,2.4,3,3.6,3
2018/8/24 8:40,2.4,3,2.4,3,2.4,6
2018/8/24 8:41,2.3,3,2.4,3,3.7,3
2018/8/24 8:42,2.4,4,2.4,3,3.9,3
2018/8/24 8:43,2.3,4,2.4,3,3.7,3
2018/8/24 8:44,2.3,4,2.3,3,4.4,3
2018/8/24 8:45,2.3,4,2.3,3,3.2,5
2018/8/24 8:46,2.2,4,2.3,3,2.5,3
2018/8/24 8:47,2.2,4,2.2,3,4.3,5
2018/8/24 8:48,2.3,4,2.3,3,3.9,4
2018/8/24 8:49,2.3,4,2.3,3,4.2,4
2018/8/24 8:50,2.4,4,2.4,3,3.1,5
2018/8/24 8:51,2.4,4,2.5,4,3.3,4
2018/8/24 8:52,2.4,4,2.4,4,2.5,4
2018/8/24 8:53,2.2,4,2.3,4,2.9,6
2018/8/24 8:54,2,5,2.2,4,1.5,6
2018/8/24 8:55,2,5,2,4,1.6,6
2018/8/24 8:56,2,5,2,4,2.6,5
2018/8/24 8:57,1.9,5,2,4,2.6,4
2018/8/24 8:58,1.7,5,1.9,4,2.4,3
2018/8/24 8:59,1.6,5,1.7,4,2.7,3
2018/8/24 9:00,1.7,4,1.7,4,3.2,3
2018/8/24 9:01,1.6,4,1.7,4,3.2,5
2018/8/24 9:02,1.7,4,1.7,4,4.3,5
2018/8/24 9:03,1.8,4,1.8,4,3.2,4
2018/8/24 9:04,1.9,4,1.9,5,3.8,4
2018/8/24 9:05,2,4,2,5,3,5
2018/8/24 9:06,2,4,2,5,2.6,3
2018/8/24 9:07,2,4,2,4,3,5
2018/8/24 9:08,2,4,2,4,2.2,6
2018/8/24 9:09,2,4,2,4,3,6
2018/8/24 9:10,1.9,4,1.9,4,3.3,4
2018/8/24 9:11,1.9,4,1.9,4,3.7,4
2018/8/24 9:12,1.8,5,1.9,4,3.1,6
2018/8/24 9:13,1.8,5,1.8,4,2,4
2018/8/24 9:14,1.7,5,1.8,4,1.4,6
2018/8/24 9:15,1.6,5,1.6,4,2,2
2018/8/24 9:16,1.6,5,1.6,4,2.4,5
2018/8/24 9:17,1.7,5,1.7,4,3,5
2018/8/24 9:18,1.7,5,1.7,4,2.9,5
2018/8/24 9:19,1.7,5,1.7,4,2.5,6
2018/8/24 9:20,1.7,5,1.8,4,2.5,7
2018/8/24 9:21,1.8,5,1.8,4,3.6,6
2018/8/24 9:22,1.7,5,1.8,5,3,9
2018/8/24 9:23,1.8,6,1.8,5,3.6,8
2018/8/24 9:24,1.9,6,1.9,6,3.3,8
2018/8/24 9:25,1.9,6,1.9,6,3,5
2018/8/24 9:26,2.1,6,2.1,6,5.6,8
2018/8/24 9:27,2,7,2.1,6,3.8,6
2018/8/24 9:28,2.1,6,2.1,6,5,6
2018/8/24 9:29,2,7,2.1,6,2.5,6
2018/8/24 9:30,2.1,7,2.1,6,4.2,6
2018/8/24 9:31,2.1,6,2.1,6,4.7,5
2018/8/24 9:32,2.3,6,2.3,6,5,5
2018/8/24 9:33,2.5,6,2.5,6,5.8,4
2018/8/24 9:34,2.7,6,2.7,6,5,6
2018/8/24 9:35,2.9,6,2.9,6,5.5,6
2018/8/24 9:36,3,6,3,6,6.5,5
2018/8/24 9:37,3.3,5,3.3,5,6,5
2018/8/24 9:38,3.3,5,3.3,5,4.8,5
2018/8/24 9:39,3.4,5,3.4,5,3.2,5
2018/8/24 9:40,3.5,5,3.5,5,5.5,6
2018/8/24 9:41,3.7,5,3.7,5,6,5
2018/8/24 9:42,3.7,5,3.7,5,5.2,5
2018/8/24 9:43,3.5,5,3.7,5,5.4,6
2018/8/24 9:44,3.5,6,3.5,5,5.6,6
2018/8/24 9:45,3.5,6,3.5,5,5.4,6
2018/8/24 9:46,3.4,6,3.5,5,5.1,7
2018/8/24 9:47,3,6,3.3,5,1.9,6
2018/8/24 9:48,2.9,6,3,5,2.9,7
2018/8/24 9:49,3.1,6,3.1,5,6.3,6
2018/8/24 9:50,3.2,6,3.2,5,7,5
2018/8/24 9:51,3.1,6,3.3,5,5.8,6
2018/8/24 9:52,3.3,6,3.3,5,6.3,5
2018/8/24 9:53,3.4,6,3.4,5,6.2,5
2018/8/24 9:54,3.5,6,3.6,6,7.4,5
2018/8/24 9:55,3.5,6,3.5,6,5,8
2018/8/24 9:56,3.4,6,3.5,6,5.5,6
2018/8/24 9:57,3.7,6,3.7,6,4.9,6
2018/8/24 9:58,3.8,6,3.8,6,5.6,6
2018/8/24 9:59,3.8,6,3.8,6,5.4,6
2018/8/24 10:00,3.7,6,3.8,6,5.7,6
2018/8/24 10:01,3.7,6,3.7,6,5.1,7
2018/8/24 10:02,3.7,6,3.7,6,7.1,6
2018/8/24 10:03,3.6,6,3.6,6,4.5,6
2018/8/24 10:04,3.4,6,3.6,6,4.4,6
2018/8/24 10:05,3.3,6,3.4,6,2.9,7
2018/8/24 10:06,3.2,6,3.3,6,3.7,5
2018/8/24 10:07,3.2,6,3.2,6,3.6,7
2018/8/24 10:08,3.2,6,3.2,6,4.2,6
2018/8/24 10:09,3,6,3.2,6,3.7,5
2018/8/24 10:10,2.8,6,3,6,4.2,4
2018/8/24 10:11,2.8,6,2.9,6,4.4,4
2018/8/24 10:12,2.5,6,2.7,6,3,5
2018/8/24 10:13,2.3,6,2.5,6,1.9,4
2018/8/24 10:14,2.2,6,2.3,6,1.8,6
2018/8/24 10:15,2.2,6,2.2,6,3.5,6
2018/8/24 10:16,2.2,6,2.3,6,4.8,6
2018/8/24 10:17,2.2,6,2.2,6,3.7,5
2018/8/24 10:18,2.2,5,2.3,6,3.7,5
2018/8/24 10:19,2.2,5,2.2,6,2.9,5
2018/8/24 10:20,2.1,5,2.2,6,2.5,5
2018/8/24 10:21,2.1,5,2.1,6,3.8,6
2018/8/24 10:22,2.1,5,2.1,6,3.1,6
2018/8/24 10:23,2.3,5,2.3,6,5.1,4
2018/8/24 10:24,2.5,5,2.5,5,5.1,5
2018/8/24 10:25,2.6,5,2.6,5,4.2,5
2018/8/24 10:26,2.5,5,2.6,5,3.7,5
2018/8/24 10:27,2.4,5,2.5,5,3.5,7
2018/8/24 10:28,2.3,5,2.4,5,3.2,5
2018/8/24 10:29,2.3,5,2.4,5,3,5
2018/8/24 10:30,2.4,5,2.4,5,3.9,5
2018/8/24 10:31,2.4,5,2.4,5,3.6,5
2018/8/24 10:32,2.3,5,2.4,5,2.6,7
2018/8/24 10:33,2.1,6,2.3,5,1.5,8
2018/8/24 10:34,1.8,6,2,5,1.9,5
2018/8/24 10:35,1.7,6,1.8,5,2.4,4
2018/8/24 10:36,1.6,6,1.7,5,2.4,5
2018/8/24 10:37,1.6,6,1.6,5,3,7
2018/8/24 10:38,1.6,6,1.7,5,2.4,5
2018/8/24 10:39,1.5,5,1.6,5,1.9,4
2018/8/24 10:40,1.5,5,1.5,5,2.9,5
2018/8/24 10:41,1.5,6,1.5,5,4.2,7
2018/8/24 10:42,1.6,6,1.6,5,4.4,6
2018/8/24 10:43,1.8,6,1.8,6,4.3,6
2018/8/24 10:44,1.8,6,1.8,6,1.8,7
2018/8/24 10:45,1.8,6,1.8,6,2.6,6
2018/8/24 10:46,1.8,6,1.8,6,1.9,5
2018/8/24 10:47,1.8,6,1.8,6,3,6
2018/8/24 10:48,1.8,6,1.8,6,1.5,7
2018/8/24 10:49,1.8,6,1.8,6,2.9,5
2018/8/24 10:50,1.7,6,1.8,6,2.2,4
2018/8/24 10:51,1.6,7,1.7,6,2,9
2018/8/24 10:52,1.3,6,1.5,6,1,6
2018/8/24 10:53,1.2,6,1.3,6,2.1,7
2018/8/24 10:54,1.2,7,1.2,6,1.8,8
2018/8/24 10:55,1.2,7,1.3,6,2.9,8
2018/8/24 10:56,1.2,7,1.2,6,1.6,6
2018/8/24 10:57,1.1,7,1.2,6,2,6
2018/8/24 10:58,1.1,7,1.1,6,1.9,8
2018/8/24 10:59,1.1,8,1.2,6,3.1,8
2018/8/24 11:00,1.1,8,1.1,6,1.6,8
2018/8/24 11:01,1.2,8,1.2,7,2.5,7
2018/8/24 11:02,1.2,8,1.3,6,2.1,8
2018/8/24 11:03,1.2,8,1.3,7,1.3,2
2018/8/24 11:04,1.2,8,1.2,7,2.4,6
2018/8/24 11:05,1.1,8,1.2,8,2.9,7
2018/8/24 11:06,1.2,8,1.2,8,2.9,7
2018/8/24 11:07,1.2,8,1.2,8,2.7,8
2018/8/24 11:08,1.4,8,1.4,8,3.8,7
2018/8/24 11:09,1.4,8,1.4,8,2.5,9
2018/8/24 11:10,1.5,8,1.5,8,3.8,9
2018/8/24 11:11,1.5,8,1.5,8,3.8,10
2018/8/24 11:12,1.5,8,1.5,8,1.5,9
2018/8/24 11:13,1.6,8,1.6,8,4.7,6
2018/8/24 11:14,1.9,8,1.9,8,5.8,8
2018/8/24 11:15,2.1,8,2.1,8,6.1,8
2018/8/24 11:16,2.2,8,2.2,8,4.5,9
2018/8/24 11:17,2.2,8,2.2,8,3.2,8
2018/8/24 11:18,2.3,8,2.3,8,5.1,8
2018/8/24 11:19,2.4,8,2.4,8,5.5,9
2018/8/24 11:20,2.5,8,2.5,8,4.9,8
2018/8/24 11:21,2.5,8,2.5,8,4.3,6
2018/8/24 11:22,2.7,8,2.7,8,4.4,9
2018/8/24 11:23,2.9,8,2.9,8,6,8
2018/8/24 11:24,2.8,8,3,8,4.5,7
2018/8/24 11:25,2.7,8,2.8,8,4.5,8
2018/8/24 11:26,2.7,8,2.7,8,5.8,9
2018/8/24 11:27,2.8,8,2.9,8,6.3,8
2018/8/24 11:28,2.7,8,2.8,8,5.5,7
2018/8/24 11:29,3,8,3,8,8.4,8